This demonstration page uses our WeatherBlox Daily Observations layout. Learn more.

Left ArrowRight Arrow

Hourly Observations for April 25, 2018

Temp ( °F °C ) Dew Point ( °F °C ) Humidity (%) Winds ( mph kmh ) Pressure ( in mb ) Visibility ( mi km ) Precip ( " mm )
12:33 am 00:33 Cloudy 42 5.6 40 4.4 92 92 N 21 33 30.30 1026 9 14 0.00 0.00
12:53 am 00:53 Cloudy 42 5.6 41 5 96 96 N 18 30 30.30 1026 10 16 0.00 0.00
1:04 am 01:04 Cloudy 42 5.6 40 4.4 92 92 N 18 30 30.30 1026 10 16 0.00 0.00
1:25 am 01:25 Cloudy 42 5.6 40 4.4 92 92 N 17 28 30.30 1026 10 16 0.00 0.00
1:53 am 01:53 Cloudy 41 5 40 4.4 96 96 N 18 30 30.30 1026 10 16 0.00 0.00
2:53 am 02:53 Cloudy 41 5 40 4.4 96 96 N 16 26 30.32 1027 10 16 0.00 0.00
3:53 am 03:53 Cloudy with Light Rain 40 4.4 40 4.4 100 100 N 16 26 30.31 1027 4 6 0.00 0.03
4:53 am 04:53 Cloudy with Light Rain 40 4.4 40 4.4 100 100 N 15 24 30.32 1027 6 10 0.00 0.03
5:53 am 05:53 Cloudy 40 4.4 39 3.9 97 97 N 15 24 30.31 1027 10 16 0.00 0.03
6:36 am 06:36 Cloudy 40 4.4 39 3.9 97 97 N 15 24 30.33 1027 10 16 0.00 0.03
6:50 am 06:50 Cloudy 39 4 37 3 93 93 N 14 22 30.36 1028 10 16 0.00 0.00
6:53 am 06:53 Cloudy 40 4.4 38 3.3 93 93 N 15 24 30.32 1027 10 16 0.00 0.03
7:07 am 07:07 Cloudy 40 4.4 38 3.3 93 93 N 15 24 30.36 1028 10 16 0.00 0.00
7:53 am 07:53 Cloudy 40 4.4 38 3.3 93 93 N 16 26 30.33 1027 10 16 0.00 0.00
8:31 am 08:31 Cloudy 40 4.4 38 3.3 93 93 N 14 22 30.36 1028 10 16 0.00 0.00
8:53 am 08:53 Mostly Cloudy 41 5 38 3.3 89 89 N 15 24 30.32 1027 10 16 0.00 0.03
9:53 am 09:53 Mostly Cloudy 42 5.6 36 2.2 79 79 N 15 24 30.31 1026 10 16 0.00 0.00
10:53 am 10:53 Cloudy 45 7.2 35 1.7 68 68 NNE 16 26 30.30 1026 10 16 0.00 0.00
11:53 am 11:53 Cloudy 47 8.3 34 1.1 61 61 N 12 19 30.29 1026 10 16 0.00 0.00
12:53 pm 12:53 Cloudy 48 8.9 34 1.1 58 58 NNE 13 20 30.27 1025 10 16 0.00 0.00
1:53 pm 13:53 Cloudy 50 10 31 -0.6 48 48 NE 9 15 30.24 1024 10 16 0.00 0.00
2:53 pm 14:53 Sunny 53 11.7 34 1.1 48 48 NNE 14 22 30.20 1023 10 16 0.00 0.00
3:53 pm 15:53 Sunny 55 12.8 33 0.6 44 44 VRB 7 11 30.17 1022 10 16 0.00 0.00
4:53 pm 16:53 Sunny 57 13.9 33 0.6 41 41 N 8 13 30.14 1021 10 16 0.00 0.00
5:53 pm 17:53 Sunny 57 13.9 32 0 39 39 Calm 30.11 1020 10 16 0.00 0.00
6:53 pm 18:53 Sunny 58 14.4 32 0 38 38 N 6 9 30.09 1019 10 16 0.00 0.00
7:53 pm 19:53 Sunny 55 12.8 32 0 42 42 Calm 30.08 1019 10 16 0.00 0.00
8:53 pm 20:53 Clear 52 11.1 33 0.6 49 49 S 3 6 30.07 1018 10 16 0.00 0.00
9:53 pm 21:53 Clear 48 8.9 34 1.1 58 58 S 6 9 30.07 1018 10 16 0.00 0.00
10:53 pm 22:53 Clear 44 6.7 34 1.1 68 68 S 7 11 30.06 1018 10 16 0.00 0.00
11:53 pm 23:53 Clear 42 5.6 34 1.1 73 73 S 7 11 30.03 1017 10 16 0.00 0.00

Powered by AerisWeather